Regional Weather Roundup
Issued by NWS Newport/Morehead, NC

Current Version | Previous Version | Graphics & Text | Print | Product List | Glossary Off
Versions: 1 2 3 4 5 6 7 8 9 10 11 12 13 14 15 16 17 18 19 20 21 22 23 24 25 26 27 28 29 30 31 32 33 34 35 36 37 38 39 40 41 42 43 44 45 46 47 48 49 50
000 ASUS42 KMHX 240922 RWRMHX WEATHER ROUNDUP FOR EASTERN NORTH CAROLINA NATIONAL WEATHER SERVICE NEWPORT/MOREHEAD CITY NC 500 AM EDT FRI OCT 24 2014 NOTE: "FAIR" INDICATES FEW OR NO CLOUDS BELOW 12,000 FEET WITH NO SIGNIFICANT WEATHER AND/OR OBSTRUCTIONS TO VISIBILITY NCZ015>017-031-032-045>047-102-103-241000- NORTH COAST CITY SKY/WX TMP DP RH WIND PRES REMARKS EDENTON MOCLDY 52 46 78 NW6 29.97R ELIZABETH CITY PTCLDY 50 44 80 W8 29.94R KITTY HAWK SUNNY 55 47 72 NW7 29.92R MANTEO CLEAR 56 47 71 NW7 29.94R $$ NCZ045>047-081-094-103-104-241000- CENTRAL COAST CITY SKY/WX TMP DP RH WIND PRES REMARKS FRISCO CLEAR 58 49 72 NW10G18 29.93R SWANQUARTER NOT AVBL $$ NCZ095-097-098-100-101-241000- SOUTHERN COAST CITY SKY/WX TMP DP RH WIND PRES REMARKS BEAUFORT CLEAR 54 49 83 NW10 29.97R CEDAR ISLAND NOT AVBL JACKSONVILLE CLEAR 47 45 93 SW3 29.99R PINEY ISLAND SUNNY 57 48 72 NW9 29.96R WILMINGTON PTCLDY 49 46 90 NW3 29.98F $$ NCZ011>013-027>030-043-044-078>080-089-090>093-098-241000- COASTAL PLAIN CITY SKY/WX TMP DP RH WIND PRES REMARKS AHOSKIE MOCLDY 46 42 89 CALM 29.99R CLINTON PTCLDY 46 45 98 CALM 30.01S ELIZABETHTOWN PTCLDY 49 43 79 CALM 30.01R GOLDSBORO CLEAR 48 47 97 W6 29.99R GREENVILLE CLEAR 46 45 93 CALM 30.01R HAVELOCK CLEAR 49 46 90 CALM 29.99R KENANSVILLE CLEAR 46 43 88 CALM 30.01R KINSTON CLEAR 42 42 97 CALM 30.01R NEW BERN CLEAR 50 45 83 NW3 29.99R RICHLANDS CLEAR 43 37 81 CALM 30.00R ROCKY MOUNT PTCLDY 49 42 77 N5 30.00R WASHINGTON CLEAR 48 44 87 CALM 29.99R WHITEVILLE MOCLDY 49 45 85 CALM 30.01R $$ AMZ130-135-150-152-154-156-158-170-250-252-270-ANZ085-086-088-633-658-670-241000- MARINE OBSERVATIONS STATION/POSITION TIME TEMP WIND PRES WAVE SWELL AIR SEA DIR/SP/G HT/PER HT/PER (UTC) (F) (DEG/KT/KT) (MB) (FT/S) (FT/S) CHESAPEAKE LIGHT 0900 60 330/ 26/ 28 1013.1 64 E VA BEACH 0900 63 66 330/ 17/ 19 1011.2 6/ 7 3/ 9 DUCK 0900 55 66 300/ 14/ 18 1012.5 2 E DUCK 0900 N/A 4/ 8 10 NE DUCK 0900 68 N/A 5/ 8 OREGON INLET 0900 57 64 300/ 10/ 13 1013.3 13E OREGON INLT 0900 70 N/A 6/ 8 2/11 HATTERAS CG 0900 60 64 320/ 19/ 21 1013.9 DIAMOND BUOY 0900 63 320/ 21/ 25 1012.8 4/ 7 2/ 7 17 S OCRACOKE NOT AVBL CAPE LOOKOUT 0900 58 340/ 12/ 14 1014.6 BEAUFORT LAB 0900 56 66 350/ 7/ 10 1014.1 30 SE NEW RIVER 0900 65 75 360/ 10/ 14 1014.2 3/11 3/11 5 SE WRIGHTSVLE 0900 56 71 360/ 12/ 14 N/A 225 S CAPE HAT 0817 72 78 310/ 10/ 14 1014.1 5/ 9 5/ 9 41 SE CHARLESTON 0900 69 78 360/ 10/ 14 1015.0 3/10 2/10 $$

USA.gov is the U.S. government's official web portal to all federal, state and local government web resources and services.